Location: Sungai Igah
(2.7333°N, 114.2500°E)
Time: 18:41:02
(UTC+00:00)

Cosmos 1980 Rocket - Pass Details

Date: 14 June 2021
Orbit: 830 x 848 km, 71.0° (Epoch: 25 July)

Event Time Altitude Azimuth Distance (km) Brightness Sun altitude
Rises 12:07:28 0° 217° (SW) 3,401 5.5 -22.6°
Reaches altitude 10° 12:10:15 10° 229° (SW) 2,462 4.9 -23.2°
Maximum altitude 12:14:58 28° 286° (WNW) 1,541 4.2 -24.2°
Drops below altitude 10° 12:19:41 10° 343° (NNW) 2,446 5.1 -25.3°
Sets 12:22:28 0° 355° (N) 3,374 5.8 -25.9°
